Time,TemperatureF,DewpointF,PressureIn,WindDirection,WindDirectionDegrees,WindSpeedMPH,WindSpeedGustMPH,Humidity,HourlyPrecipIn,Conditions,Clouds,dailyrainin,SolarRadiationWatts/m^2,SoftwareType,DateUTC
2013-03-01 00:02:00,50.0,38.0,-100.00,WNW,285,3.0,6.0,64,0.00,,,0.00,0.000000,,2013-03-01 05:02:00,
2013-03-01 00:33:00,49.0,36.0,-100.00,West,279,3.0,6.0,60,0.00,,,0.00,0.000000,,2013-03-01 05:33:00,
2013-03-01 00:42:00,49.0,36.0,-100.00,West,279,3.0,6.0,60,0.00,,,0.00,0.000000,,2013-03-01 05:42:00,
2013-03-01 00:53:00,49.0,36.0,-100.00,West,279,3.0,6.0,60,0.00,,,0.00,0.000000,,2013-03-01 05:53:00,
2013-03-01 01:02:00,49.0,36.0,-100.00,West,279,3.0,6.0,60,0.00,,,0.00,0.000000,,2013-03-01 06:02:00,
2013-03-01 01:32:00,50.0,36.0,-100.00,NW,309,4.0,9.0,58,0.00,,,0.00,0.000000,,2013-03-01 06:32:00,
2013-03-01 01:42:00,50.0,36.0,-100.00,NW,309,4.0,9.0,58,0.00,,,0.00,0.000000,,2013-03-01 06:42:00,
2013-03-01 01:53:00,50.0,36.0,-100.00,NW,309,4.0,9.0,58,0.00,,,0.00,0.000000,,2013-03-01 06:53:00,
2013-03-01 02:02:00,50.0,36.0,-100.00,NW,309,4.0,9.0,58,0.00,,,0.00,0.000000,,2013-03-01 07:02:00,
2013-03-01 02:33:00,48.0,33.0,-100.00,NW,309,4.0,6.0,56,0.00,,,0.00,0.000000,,2013-03-01 07:33:00,
2013-03-01 02:42:00,48.0,33.0,-100.00,NW,309,4.0,6.0,56,0.00,,,0.00,0.000000,,2013-03-01 07:42:00,
2013-03-01 02:52:00,48.0,33.0,-100.00,NW,309,4.0,6.0,56,0.00,,,0.00,0.000000,,2013-03-01 07:52:00,
2013-03-01 03:02:00,48.0,33.0,-100.00,NW,309,4.0,6.0,56,0.00,,,0.00,0.000000,,2013-03-01 08:02:00,
2013-03-01 03:22:00,46.0,32.0,-100.00,NW,308,3.0,6.0,58,0.00,,,0.00,0.000000,,2013-03-01 08:22:00,
2013-03-01 03:33:00,46.0,32.0,-100.00,NW,308,3.0,6.0,58,0.00,,,0.00,0.000000,,2013-03-01 08:33:00,
2013-03-01 03:43:00,46.0,32.0,-100.00,NW,308,3.0,6.0,58,0.00,,,0.00,0.000000,,2013-03-01 08:43:00,
2013-03-01 03:53:00,46.0,32.0,-100.00,NW,308,3.0,6.0,58,0.00,,,0.00,0.000000,,2013-03-01 08:53:00,
2013-03-01 04:02:00,46.0,32.0,-100.00,NW,308,3.0,6.0,58,0.00,,,0.00,0.000000,,2013-03-01 09:02:00,
2013-03-01 04:22:00,46.0,32.0,-100.00,NW,308,3.0,8.0,57,0.00,,,0.00,0.000000,,2013-03-01 09:22:00,
2013-03-01 04:32:00,46.0,32.0,-100.00,NW,308,3.0,8.0,57,0.00,,,0.00,0.000000,,2013-03-01 09:32:00,
2013-03-01 04:42:00,46.0,32.0,-100.00,NW,308,3.0,8.0,57,0.00,,,0.00,0.000000,,2013-03-01 09:42:00,
2013-03-01 04:53:00,46.0,32.0,-100.00,NW,308,3.0,8.0,57,0.00,,,0.00,0.000000,,2013-03-01 09:53:00,
2013-03-01 05:02:00,46.0,32.0,-100.00,NW,308,3.0,8.0,57,0.00,,,0.00,0.000000,,2013-03-01 10:02:00,
2013-03-01 05:32:00,45.0,32.0,-100.00,NW,314,3.0,6.0,61,0.00,,,0.00,0.000000,,2013-03-01 10:32:00,
2013-03-01 05:42:00,45.0,32.0,-100.00,NW,314,3.0,6.0,61,0.00,,,0.00,0.000000,,2013-03-01 10:42:00,
2013-03-01 05:53:00,45.0,32.0,-100.00,NW,314,3.0,6.0,61,0.00,,,0.00,0.000000,,2013-03-01 10:53:00,
2013-03-01 06:02:00,45.0,32.0,-100.00,NW,314,3.0,6.0,61,0.00,,,0.00,0.000000,,2013-03-01 11:02:00,
2013-03-01 06:32:00,44.0,31.0,-100.00,WNW,301,4.0,7.0,61,0.00,,,0.00,0.000000,,2013-03-01 11:32:00,
2013-03-01 06:42:00,44.0,31.0,-100.00,WNW,301,4.0,7.0,61,0.00,,,0.00,0.000000,,2013-03-01 11:42:00,
2013-03-01 06:53:00,44.0,31.0,-100.00,WNW,301,4.0,7.0,61,0.00,,,0.00,0.000000,,2013-03-01 11:53:00,
2013-03-01 07:02:00,44.0,31.0,-100.00,WNW,301,4.0,7.0,61,0.00,,,0.00,0.000000,,2013-03-01 12:02:00,
2013-03-01 07:33:00,43.0,30.0,-100.00,NW,306,3.0,7.0,61,0.00,,,0.00,1.000000,,2013-03-01 12:33:00,
2013-03-01 07:42:00,43.0,30.0,-100.00,NW,306,3.0,7.0,61,0.00,,,0.00,1.000000,,2013-03-01 12:42:00,
2013-03-01 07:52:00,43.0,30.0,-100.00,NW,306,3.0,7.0,61,0.00,,,0.00,1.000000,,2013-03-01 12:52:00,
2013-03-01 08:01:00,43.0,30.0,-100.00,NW,306,3.0,7.0,61,0.00,,,0.00,1.000000,,2013-03-01 13:01:00,
2013-03-01 08:32:00,43.0,31.0,-100.00,WNW,300,4.0,8.0,63,0.00,,,0.00,36.000000,,2013-03-01 13:32:00,
2013-03-01 08:42:00,43.0,31.0,-100.00,WNW,300,4.0,8.0,63,0.00,,,0.00,36.000000,,2013-03-01 13:42:00,
2013-03-01 08:52:00,43.0,31.0,-100.00,WNW,300,4.0,8.0,63,0.00,,,0.00,36.000000,,2013-03-01 13:52:00,
2013-03-01 09:02:00,43.0,31.0,-100.00,WNW,300,4.0,8.0,63,0.00,,,0.00,36.000000,,2013-03-01 14:02:00,
2013-03-01 09:32:00,46.0,30.0,-100.00,NW,313,7.0,11.0,54,0.00,,,0.00,271.000000,,2013-03-01 14:32:00,
2013-03-01 09:42:00,46.0,30.0,-100.00,NW,313,7.0,11.0,54,0.00,,,0.00,271.000000,,2013-03-01 14:42:00,
2013-03-01 09:52:00,46.0,30.0,-100.00,NW,313,7.0,11.0,54,0.00,,,0.00,271.000000,,2013-03-01 14:52:00,
2013-03-01 10:02:00,46.0,30.0,-100.00,NW,313,7.0,11.0,54,0.00,,,0.00,271.000000,,2013-03-01 15:02:00,
2013-03-01 10:21:00,46.0,30.0,-100.00,WNW,301,6.0,11.0,54,0.00,,,0.00,274.000000,,2013-03-01 15:21:00,
2013-03-01 10:32:00,46.0,30.0,-100.00,WNW,301,6.0,11.0,54,0.00,,,0.00,274.000000,,2013-03-01 15:32:00,
2013-03-01 10:42:00,46.0,30.0,-100.00,WNW,301,6.0,11.0,54,0.00,,,0.00,274.000000,,2013-03-01 15:42:00,
2013-03-01 10:52:00,46.0,30.0,-100.00,WNW,301,6.0,11.0,54,0.00,,,0.00,274.000000,,2013-03-01 15:52:00,
2013-03-01 11:01:00,46.0,30.0,-100.00,WNW,301,6.0,11.0,54,0.00,,,0.00,274.000000,,2013-03-01 16:01:00,
2013-03-01 11:32:00,47.0,31.0,-100.00,NW,306,6.0,12.0,53,0.00,,,0.00,318.000000,,2013-03-01 16:32:00,
2013-03-01 11:42:00,47.0,31.0,-100.00,NW,306,6.0,12.0,53,0.00,,,0.00,318.000000,,2013-03-01 16:42:00,
2013-03-01 11:52:00,47.0,31.0,-100.00,NW,306,6.0,12.0,53,0.00,,,0.00,318.000000,,2013-03-01 16:52:00,
2013-03-01 12:01:00,47.0,31.0,-100.00,NW,306,6.0,12.0,53,0.00,,,0.00,318.000000,,2013-03-01 17:01:00,
2013-03-01 12:32:00,49.0,31.0,-100.00,West,281,7.0,15.0,50,0.00,,,0.00,516.000000,,2013-03-01 17:32:00,
2013-03-01 12:42:00,49.0,31.0,-100.00,West,281,7.0,15.0,50,0.00,,,0.00,516.000000,,2013-03-01 17:42:00,
2013-03-01 12:52:00,49.0,31.0,-100.00,West,281,7.0,15.0,50,0.00,,,0.00,516.000000,,2013-03-01 17:52:00,
2013-03-01 13:01:00,49.0,31.0,-100.00,West,281,7.0,15.0,50,0.00,,,0.00,516.000000,,2013-03-01 18:01:00,
2013-03-01 13:32:00,50.0,32.0,-100.00,WNW,300,6.0,14.0,49,0.00,,,0.00,463.000000,,2013-03-01 18:32:00,
2013-03-01 13:42:00,50.0,32.0,-100.00,WNW,300,6.0,14.0,49,0.00,,,0.00,463.000000,,2013-03-01 18:42:00,
2013-03-01 13:52:00,50.0,32.0,-100.00,WNW,300,6.0,14.0,49,0.00,,,0.00,463.000000,,2013-03-01 18:52:00,
2013-03-01 14:01:00,50.0,32.0,-100.00,WNW,300,6.0,14.0,49,0.00,,,0.00,463.000000,,2013-03-01 19:01:00,
2013-03-01 14:22:00,53.0,34.0,-100.00,WNW,284,6.0,11.0,49,0.00,,,0.00,433.000000,,2013-03-01 19:22:00,
2013-03-01 14:32:00,53.0,34.0,-100.00,WNW,284,6.0,11.0,49,0.00,,,0.00,433.000000,,2013-03-01 19:32:00,
2013-03-01 14:42:00,53.0,34.0,-100.00,WNW,284,6.0,11.0,49,0.00,,,0.00,433.000000,,2013-03-01 19:42:00,
2013-03-01 14:52:00,53.0,34.0,-100.00,WNW,284,6.0,11.0,49,0.00,,,0.00,433.000000,,2013-03-01 19:52:00,
2013-03-01 15:01:00,53.0,34.0,-100.00,WNW,284,6.0,11.0,49,0.00,,,0.00,433.000000,,2013-03-01 20:01:00,
2013-03-01 15:22:00,54.0,33.0,-100.00,NW,304,6.0,13.0,44,0.00,,,0.00,552.000000,,2013-03-01 20:22:00,
2013-03-01 15:32:00,54.0,33.0,-100.00,NW,304,6.0,13.0,44,0.00,,,0.00,552.000000,,2013-03-01 20:32:00,
2013-03-01 15:42:00,54.0,33.0,-100.00,NW,304,6.0,13.0,44,0.00,,,0.00,552.000000,,2013-03-01 20:42:00,
2013-03-01 15:52:00,54.0,33.0,-100.00,NW,304,6.0,13.0,44,0.00,,,0.00,552.000000,,2013-03-01 20:52:00,
2013-03-01 16:02:00,54.0,33.0,-100.00,NW,304,6.0,13.0,44,0.00,,,0.00,552.000000,,2013-03-01 21:02:00,
2013-03-01 16:22:00,52.0,32.0,-100.00,WNW,285,7.0,13.0,46,0.00,,,0.00,265.000000,,2013-03-01 21:22:00,
2013-03-01 16:32:00,52.0,32.0,-100.00,WNW,285,7.0,13.0,46,0.00,,,0.00,265.000000,,2013-03-01 21:32:00,
2013-03-01 16:42:00,52.0,32.0,-100.00,WNW,285,7.0,13.0,46,0.00,,,0.00,265.000000,,2013-03-01 21:42:00,
2013-03-01 16:52:00,52.0,32.0,-100.00,WNW,285,7.0,13.0,46,0.00,,,0.00,265.000000,,2013-03-01 21:52:00,
2013-03-01 17:01:00,52.0,32.0,-100.00,WNW,285,7.0,13.0,46,0.00,,,0.00,265.000000,,2013-03-01 22:01:00,
2013-03-01 17:32:00,50.0,33.0,-100.00,WNW,301,6.0,12.0,51,0.00,,,0.00,123.000000,,2013-03-01 22:32:00,
2013-03-01 17:42:00,50.0,33.0,-100.00,WNW,301,6.0,12.0,51,0.00,,,0.00,123.000000,,2013-03-01 22:42:00,
2013-03-01 17:52:00,50.0,33.0,-100.00,WNW,301,6.0,12.0,51,0.00,,,0.00,123.000000,,2013-03-01 22:52:00,
2013-03-01 18:01:00,50.0,33.0,-100.00,WNW,301,6.0,12.0,51,0.00,,,0.00,123.000000,,2013-03-01 23:01:00,
2013-03-01 18:32:00,48.0,34.0,-100.00,WNW,285,5.0,12.0,57,0.00,,,0.00,31.000000,,2013-03-01 23:32:00,
2013-03-01 18:42:00,48.0,34.0,-100.00,WNW,285,5.0,12.0,57,0.00,,,0.00,31.000000,,2013-03-01 23:42:00,
2013-03-01 18:52:00,48.0,34.0,-100.00,WNW,285,5.0,12.0,57,0.00,,,0.00,31.000000,,2013-03-01 23:52:00,
2013-03-01 19:02:00,48.0,34.0,-100.00,WNW,285,5.0,12.0,57,0.00,,,0.00,31.000000,,2013-03-02 00:02:00,
2013-03-01 19:32:00,47.0,35.0,-100.00,West,260,3.0,7.0,63,0.00,,,0.00,1.000000,,2013-03-02 00:32:00,
2013-03-01 19:42:00,47.0,35.0,-100.00,West,260,3.0,7.0,63,0.00,,,0.00,1.000000,,2013-03-02 00:42:00,
2013-03-01 19:52:00,47.0,35.0,-100.00,West,260,3.0,7.0,63,0.00,,,0.00,1.000000,,2013-03-02 00:52:00,
2013-03-01 20:01:00,47.0,35.0,-100.00,West,260,3.0,7.0,63,0.00,,,0.00,1.000000,,2013-03-02 01:01:00,
2013-03-01 20:32:00,45.0,35.0,-100.00,SW,221,2.0,5.0,67,0.00,,,0.00,0.000000,,2013-03-02 01:32:00,
2013-03-01 20:42:00,45.0,35.0,-100.00,SW,221,2.0,5.0,67,0.00,,,0.00,0.000000,,2013-03-02 01:42:00,
2013-03-01 20:52:00,45.0,35.0,-100.00,SW,221,2.0,5.0,67,0.00,,,0.00,0.000000,,2013-03-02 01:52:00,
2013-03-01 21:01:00,45.0,35.0,-100.00,SW,221,2.0,5.0,67,0.00,,,0.00,0.000000,,2013-03-02 02:01:00,
2013-03-01 21:32:00,44.0,36.0,-100.00,SW,231,1.0,3.0,74,0.00,,,0.00,0.000000,,2013-03-02 02:32:00,
2013-03-01 21:42:00,44.0,36.0,-100.00,SW,231,1.0,3.0,74,0.00,,,0.00,0.000000,,2013-03-02 02:42:00,
2013-03-01 21:52:00,44.0,36.0,-100.00,SW,231,1.0,3.0,74,0.00,,,0.00,0.000000,,2013-03-02 02:52:00,
2013-03-01 22:02:00,44.0,36.0,-100.00,SW,231,1.0,3.0,74,0.00,,,0.00,0.000000,,2013-03-02 03:02:00,
2013-03-01 22:32:00,44.0,36.0,-100.00,WSW,248,3.0,4.0,74,0.00,,,0.00,0.000000,,2013-03-02 03:32:00,
2013-03-01 22:42:00,44.0,36.0,-100.00,WSW,248,3.0,4.0,74,0.00,,,0.00,0.000000,,2013-03-02 03:42:00,
2013-03-01 22:53:00,44.0,36.0,-100.00,WSW,248,3.0,4.0,74,0.00,,,0.00,0.000000,,2013-03-02 03:53:00,
2013-03-01 23:02:00,44.0,36.0,-100.00,WSW,248,3.0,4.0,74,0.00,,,0.00,0.000000,,2013-03-02 04:02:00,
2013-03-01 23:32:00,43.0,36.0,-100.00,SW,231,1.0,4.0,77,0.00,,,0.00,0.000000,,2013-03-02 04:32:00,
2013-03-01 23:42:00,43.0,36.0,-100.00,SW,231,1.0,4.0,77,0.00,,,0.00,0.000000,,2013-03-02 04:42:00,
2013-03-01 23:52:00,43.0,36.0,-100.00,SW,231,1.0,4.0,77,0.00,,,0.00,0.000000,,2013-03-02 04:52:00,